Location: Hermaringen
(48.5952°N, 10.2585°E)
Time: 13:42:47
(UTC+00:00)

SR - Pass Details

Date: 21 February 2026
Orbit: 572 x 849 km, 66.7° (Epoch: 12 March)

Event Time Altitude Azimuth Distance (km) Brightness Sun altitude
Rises 12:03:20 0° 320° (NW) 3,083 ? 30.6°
Reaches altitude 10° 12:05:40 10° 315° (NW) 2,206 ? 30.5°
Maximum altitude 12:10:29 47° 242° (WSW) 998 ? 30.4°
Drops below altitude 10° 12:15:40 10° 170° (S) 2,360 ? 30.2°
Sets 12:18:14 0° 165° (SSE) 3,320 ? 30.1°
